{"data":{"norad_id":48441,"epoch":"2026-09-19T19:34:09.216480Z","epoch_age_seconds":96334,"freshness":"FRESH","line1":"1 48441U 21040P   26262.81538445 -.00000252  00000+0  36574-5 0  9993","line2":"2 48441  53.1613 354.7851 0001243  85.7903 274.3240 15.31702232296428","mean_motion":15.31702232,"eccentricity":0.0001243,"inclination_deg":53.1613,"raan_deg":354.7851,"arg_perigee_deg":85.7903,"mean_anomaly_deg":274.324,"bstar":3.6574e-6,"rev_number":29642,"period_min":94.013050964856,"perigee_km":469.88202717439,"apogee_km":471.58465634135,"semimajor_km":6848.8703417579,"source":"CELESTRAK","updated_at":"2026-09-20T09:00:39.125360Z"}}